パンスターズ彗星

C/2017 F2 ( PanSTARRS )

English version
Home page
Updated on December 24, 2017

---------------------------------------------------------------------

・ プロフィール

発見日 2017年3月31日
発見光度 21.2等
発見者 Pan-STARRS 1 telescope (Haleakala)

・ 写真集

・ 軌道要素

Epoch 2017 Nov. 23.0 TT = JDT 2458080.5
T 2017 Nov. 26.41613 TT                                 MPCW
q   6.9275504            (2000.0)            P               Q
z  -0.0007578      Peri.  134.91902     -0.87746703     -0.22763278
 +/-0.0000068      Node    38.66857     -0.22116158     -0.58902569
e   1.0052495      Incl.   42.50750     +0.42560447     -0.77539155
From 40 observations 2017 Mar. 31-Nov. 23, mean residual 0".4.

・ 光度変化

        m1 = 7.5 + 5 logΔ + 10.0 log r

---------------------------------------------------------------------

軌道要素はM.P.E.C. 2017-X08に掲載されたものです。
光度グラフはComet for Windowsで作成したものです。

---------------------------------------------------------------------

Copyright(C) Seiichi Yoshida (comet@aerith.net). All rights reserved.